Retour au catalogue

TIANHUI 2-02A

ActifScienceSSO
NORAD 49071·PAYLOAD·🇨🇳 China

Lancé Aug 18, 2021 depuis Taiyuan Satellite Launch Center

Loading…

Prochains Passages (prochaines 24 heures)

TLE

FraisSource: Space-Track

Époque: Sep 14, 2026, 06:12 UTC

1 49071U 21074A   26257.25866817  .00001275  00000-0  68415-4 0  9993
2 49071  97.4859 259.3326 0001842 107.8426 252.3008 15.16753088280776

Suivez TIANHUI 2-02A en temps réel avec AllMySat

Download on the App Store